Simultaneous Nadir Overpasses (SNOs) Predictions

Prediction of SNOs between GOES-16 and METOP-B Satellite Orbit:

Table of predicted SNOs for the next 14.0 days since TLE Epoch: 2/2/2017
Index Date Time (GOES-16) GOES-16 Lat,Lon METOP-B Lat,Lon Distance(km) Time Diff (sec)
1 02/04/2017 03:27:04 0.00, -89.46 0.05, -89.18 31.58 80
2 02/05/2017 15:45:56 -0.01, -89.50 0.97, -93.75 484.33 80
3 02/06/2017 15:27:58 -0.01, -89.51 -0.19, -88.76 85.64 80
4 02/08/2017 03:44:18 0.01, -89.50 -0.84, -93.36 439.67 80
5 02/09/2017 03:26:19 0.01, -89.51 0.26, -88.36 130.50 80
6 02/10/2017 15:42:31 -0.01, -89.55 0.76, -92.92 384.69 80
7 02/11/2017 15:24:33 -0.01, -89.57 -0.40, -87.94 186.02 80
8 02/13/2017 03:40:53 0.01, -89.56 -0.63, -92.54 338.06 80
9 02/14/2017 03:22:53 0.01, -89.58 0.47, -87.54 232.91 80
10 02/15/2017 15:39:06 -0.01, -89.64 0.55, -92.10 281.31 80
11 02/16/2017 15:21:07 -0.01, -89.66 -0.60, -87.12 289.97 80




NCC Satellite Simultaneous Nadir Overpasses (SNOs) Prediction Service
